DELTA 1 DEB, 2706

Orbit data source: Space-Track

DELTA 1 DEB, 2706 is space debris in SSO originally from a launch on Thu, 26 Jan 1967 UTC launched from the Air Force Western Test Range (AFWTR). Debris objects in space refer to the collection of defunct objects orbiting the Earth. Examples of debris include non-operational satellites, rocket bodies, and fragments generated from explosions, collisions, or faulty payload assembly.

Loading next visibility...
DELTA 1 DEB details
Identifier
2706, 1967-006C
Orbit
SSO
Last TLE update2 days ago
Origin
Flag of USGSFC (US)
ManufacturerUnknown
MissionSpacecraft
Bus & MotorUnknown
MassUnknown
Launch date (UTC)
1967-01-26 (58 years ago)
Launch vehicleUnknown
Launch site
Air Force Western Test Range (AFWTR)
Object type
Payload
Rocket body
Debris
Shape & HBRUnknown
Radar Cross SectionSmall (<0.1 m²)

Expand to show TLE details & history

TLE from 2 days ago
0 DELTA 1 DEB
1 02706U 67006C   25036.53167946 -.00000034  00000-0  82537-4 0  9998
2 02706 102.2202  50.7395 0035115 289.2109 198.2035 12.60913355669959
Epoch: 2025-02-05T12:45Z
Definitive object data (Epoch: 2025-02-05T12:45:37.105Z)
Latitude51.13251°
Longitude-81.07689°
Altitude1,453.183 km
Speed7.128 km/s
True Right ascension16h 24m 59s
True Declination50° 58' 46"
Sunlit
Object was in daylight at TLE epoch
Visualization TLE readout
Latitude-76.83159°
Longitude152.10761°
Altitude1,419.754 km
Speed7.163 km/s
Apparent Right ascension14h 28m 04s
Apparent Declination-69° 34' 45"
Sunlit
Object is in daylight
Visualization observer readout
Local Sidereal Time03:52:34
Azimuth166.147° S
Elevation-58.317°
Doppler factor1
Orbital elements
Apogee altitude1,444.109 km
Perigee altitude1,389.366 km
Semi-major axis7,794.875 km
Eccentricity0.0035115
Inclination102.2202°
RAAN50.7395°
Arg. of periapsis289.2109°
True anomaly198.07832°
Mean anomaly198.2035°
Eccentric anomaly198.14086°
Mean motion3.15377 °/min
BSTAR0.000082537
Orbital period114.15 mins
Loading maneuver chart data...
Loading historical data...
Loading historical data...
Loading historical data...
Loading historical data...
Loading historical data...
Loading historical data...
Loading historical data...
Other satellites on launch #6 in the year 1967 (1967-01-26 UTC)

DELTA 1 DEB Visibility forecast

Observer location: undefined°, undefined

Span
Click to sort rows by Start time (UTC) header in descending order
Start Az.
Max El. time (UTC)
Max El. Az.
Max El.
End time (UTC)
End Az.
11 mins2025-02-07 02:16:17.534Z222.51° SW2025-02-07 02:22:17.534Z270.821° WNW19.173°2025-02-07 02:27:17.534Z310.025° NW
10 mins2025-02-07 12:22:17.534Z54.363° ENE2025-02-07 12:27:17.534Z99.174° ESE21.779°2025-02-07 12:32:17.534Z140.4° SSE
15 mins2025-02-07 14:12:17.534Z13.236° NNE2025-02-07 14:19:17.534Z303.871° NW43.648°2025-02-07 14:27:17.534Z210.09° SW
7 mins2025-02-07 16:07:17.534Z335.159° NNW2025-02-07 16:10:17.534Z310.66° NW16.275°2025-02-07 16:14:17.534Z279.777° WNW
12 mins2025-02-07 23:16:17.534Z111.367° ESE2025-02-07 23:22:17.534Z52.609° ENE28.806°2025-02-07 23:28:17.534Z1.069° NNE
14 mins2025-02-08 01:07:17.534Z182.706° SSW2025-02-08 01:13:17.534Z249.854° W40.028°2025-02-08 01:21:17.534Z333.628° NNW
|